Regional Weather Roundup
Issued by NWS

Current Version | Previous Version | Text Only | Print | Product List | Glossary On
Versions: 1 2 3 4 5 6 7 8 9 10 11 12 13 14 15 16 17 18 19 20 21 22 23 24 25 26 27 28
000
ASUS45 KBOU 021110
RWRCO

WEATHER ROUNDUP FOR COLORADO
NATIONAL WEATHER SERVICE DENVER/BOULDER CO
400 AM MST THU FEB 02 2023

NOTE: "FAIR" INDICATES FEW OR NO CLOUDS BELOW 12000 FEET WITH NO
SIGNIFICANT WEATHER AND/OR OBSTRUCTIONS TO VISIBILITY.

COZ001>005-013-030-031-021200-
...NORTHWEST COLORADO...

CITY           SKY/WX    TMP DP  RH WIND       PRES   REMARKS
CRAIG          FAIR     -18 -24  74 CALM      30.38S
HAYDEN         FAIR       6   0  76 E12       30.35S WCI  -9
MEEKER         FAIR     -10 -13  86 CALM      30.36S
RANGELY        FAIR     -11 -16  81 CALM      30.46S
RABBIT EARS PA NOT AVBL
STEAMBOAT SPGS FAIR       0  -2  91 CALM      30.34R
WALDEN         FAIR       0  -4  85 SE6       30.28S WCI -12
$$

COZ006>008-011-021200-
...WEST CENTRAL VALLEYS...

CITY           SKY/WX    TMP DP  RH WIND       PRES   REMARKS
GRAND JUNCTION FAIR      21  14  74 E8        30.38R WCI  11
MONTROSE       FAIR      13   6  74 S12       30.37R WCI  -1
EAGLE          FAIR       1  -4  79 CALM      30.44R
RIFLE          FAIR       5   0  79 CALM      30.40R
DELTA          FAIR      17  10  74 E3        30.40S
NUCLA          NOT AVBL
$$

COZ017>023-064>068-021200-
...SOUTHWEST COLORADO...

CITY           SKY/WX    TMP DP  RH WIND       PRES   REMARKS
DURANGO        FAIR       1  -2  87 E3        30.24S
CORTEZ         FAIR       8   2  76 NE8       30.28S WCI  -4
PAGOSA SPRINGS FAIR       8   5  85 CALM      30.22S
TELLURIDE      FAIR      14   3  62 CALM      30.27S
WOLF CREEK PAS FAIR      14   1  57 NW7       30.26R WCI   4
$$

COZ009-010-012-014-032>034-037-058>063-021200-
...CENTRAL COLORADO...

CITY           SKY/WX    TMP DP  RH WIND       PRES   REMARKS
ASPEN          FAIR       4  -1  80 S7        30.31R WCI  -8
BUENA VISTA      N/A     24   9  53 NW17G28   30.23R WCI  10
COPPER MTN     NOT AVBL
BERTHOUD PASS  CLOUDY     5   1  85 N24G35    30.18R WCI -17
DAKOTA HILL    FAIR      10   9  92 NW16G31   30.19R WCI  -7
COTTONWOOD PAS FAIR      21   7  53 W7        30.21R WCI  13
GUNNISON       FAIR     -15 -21  74 E5        30.39S WCI -27
GRANBY           N/A     -1  -5  84 CALM      30.34R
KREMMLING      FAIR     -15 -18  84 CALM      30.41R
LEADVILLE      FAIR       5   1  83 NE7       30.25R WCI  -7
SALIDA         FAIR      21   6  53 W8        30.32S WCI  11
SUNLIGHT       FOG       10   7  85 NE3       30.31S VSB 1/4
WILKERSON PASS FAIR      19   1  45 NW7       30.22R WCI  10
$$

COZ069>075-021200-
...SAN LUIS VALLEY/SANGRE DE CRISTO MOUNTAINS...

CITY           SKY/WX    TMP DP  RH WIND       PRES   REMARKS
ALAMOSA        FAIR       2  -3  80 W3        30.23R
DEL NORTE      FAIR      17   2  52 W16       30.22S WCI   2
LA VETA PASS   FAIR      14   0  52 W9        30.16R WCI   2
SAGUACHE         N/A     21   7  53 NW12      30.25F WCI   9
$$

COZ035-036-038>040-021200-
...NORTHERN COLORADO FRONT RANGE...

CITY           SKY/WX    TMP DP  RH WIND       PRES   REMARKS
DENVER INTL AP FAIR      23  11  60 SW6       30.18R WCI  16
AURORA         PTCLDY    22  10  58 S9        30.17R WCI  12
WATKINS        NOT AVBL
ERIE           FAIR      12   9  87 CALM      30.19R
BOULDER        FAIR      25  12  58 CALM      30.18R
CENTENNIAL     FAIR      24  10  55 S6        30.17R WCI  17
BROOMFIELD     FAIR      32  12  43 W3        30.18R
FORT COLLINS   FAIR      14   8  77 NE7       30.21R WCI   4
LONGMONT       FAIR      13   7  78 CALM      30.23R
$$

COZ041-046-047-076>085-087-088-021200-
...PIKES PEAK/PALMER DIVIDE AND SOUTHERN FOOTHILLS...

CITY           SKY/WX    TMP DP  RH WIND       PRES   REMARKS
COLO. SPRINGS  FAIR      21   7  54 N10       30.18R WCI  10
A. F. ACADEMY  FAIR      14   7  74 N8        30.16R WCI   3
SCHRIEVER AFB  FAIR      25   6  44 NW6       30.15R WCI  18
CHEYENNE MTN   FAIR      33   9  37 N10       30.14R WCI  24
ELLICOTT       FAIR      18   9  67 CALM      30.19R
FALCON         FAIR      20   7  56 NW8       30.18R WCI  11
FORT CARSON    FAIR      22  10  58 N13       30.17R WCI  10
LIMON          FAIR      12   2  64 N6        30.18R WCI   3
MONUMENT HILL  FAIR      18   5  57 W8        30.19R WCI   7
CANON CITY     FAIR      28  10  47 W5        30.19R WCI  23
WALSENBURG     NOT AVBL
TRINIDAD       FAIR      18   7  62 W14       30.17R WCI   4
$$

COZ042>045-048>051-090-091-021200-
...NORTHEAST COLORADO...

CITY           SKY/WX    TMP DP  RH WIND       PRES   REMARKS
GREELEY        FAIR       0  -4  83 W3        30.23R
AKRON          FAIR      13   6  74 W16       30.18R WCI  -3
BURLINGTON     FAIR      16   5  62 W14       30.18R WCI   2
WRAY           FAIR      14   9  79 W5        30.21R WCI   6
YUMA             N/A     10   3  72 W14       30.20R WCI  -5
STERLING       FAIR       3   0  85 S6        30.22R WCI  -8
HOLYOKE        FAIR      21  10  63 W14       30.19S WCI   8
FORT MORGAN    FAIR       7   3  85 W12       30.22R WCI  -9
$$

COZ086-089-092>099-021200-
...SOUTHEAST COLORADO...

CITY           SKY/WX    TMP DP  RH WIND       PRES   REMARKS
PUEBLO         FAIR      14   6  70 SW6       30.20R WCI   5
LA JUNTA       FAIR      15   9  76 W10       30.21R WCI   2
LAMAR          FAIR       9   4  80 SW9       30.20R WCI  -4
SPRINGFIELD      N/A     20  10  65 NW9       30.16R WCI   9
$$



USA.gov is the U.S. government's official web portal to all federal, state and local government web resources and services.